Louisburg, NC

1:18 PM EDT on April 26, 2017 (GMT -0400)
Franklin County

Weather History for KLHZ - January, 2013

Change the Weather History Date:

Thursday, January 17, 2013

  Actual Average (KRDU) Record (KRDU)
Temperature  
Mean Temperature - -  
Max Temperature - 49 °F 77 °F (1943)
Min Temperature - 26 °F -1 °F (1977)
Moisture  
Dew Point -    
Average Humidity    
Maximum Humidity    
Minimum Humidity    
Precipitation  
Precipitation 1.05 in - - ()
Sea Level Pressure  
Sea Level Pressure 30.00 in    
Wind  
Wind Speed 5 mph (NNE)    
Max Wind Speed 20 mph    
Max Gust Speed 31 mph    
Visibility 5 miles    
Events Rain    
Averages and records for this station are not official NWS values.
T = Trace of Precipitation, MM = Missing Value Source: NWS Daily Summary

Daily Weather History Graph

Daily Weather History Graph

Search for Another Location

Airport or City:

Trip Planner

Search our weather history database for the weather conditions in past years. The results will help you decide how hot, cold, wet, or windy it might be!

Date:

Astronomy

Jan. 17, 2013 Rise Set
Actual Time 7:22 AM EST 5:24 PM EST
Civil Twilight 6:54 AM EST 5:52 PM EST
Nautical Twilight 6:23 AM EST 6:24 PM EST
Astronomical Twilight 5:52 AM EST 6:54 PM EST
Moon 10:42 AM EST (1/17) 11:59 PM EST (1/17)
Length of Visible Light 10h 57m
Length of Day
10h 02m
Waxing Crescent, 37% of the Moon is Illuminated
Jan 17
Waxing Crescent
Jan 18
First Quarter
Jan 26
Full
Feb 3
Last Quarter
Feb 10
New

Hourly Weather History & Observations

Time (EST) Temp. Dew Point Humidity Pressure Visibility Wind Dir Wind Speed Gust Speed Precip Events Conditions
12:15 AM - - N/A% 29.99 in 5.0 mi South 4.6 mph - N/A   Drizzle
12:35 AM - - N/A% 29.98 in 4.0 mi Calm Calm - 0.01 in   Light Drizzle
12:55 AM - - N/A% 29.99 in 4.0 mi Calm Calm - 0.03 in Rain Rain
1:15 AM - - N/A% 29.99 in 4.0 mi Calm Calm - 0.02 in   Heavy Drizzle
1:35 AM - - N/A% 30.00 in 4.0 mi Calm Calm - 0.03 in   Drizzle
1:55 AM - - N/A% 30.00 in 3.0 mi Calm Calm - 0.05 in   Heavy Drizzle
2:15 AM - - N/A% 30.00 in 4.0 mi NNW 3.5 mph - 0.03 in   Drizzle
2:35 AM - - N/A% 30.00 in 4.0 mi Calm Calm - 0.05 in   Drizzle
2:55 AM - - N/A% 30.00 in 4.0 mi North 3.5 mph - 0.06 in   Drizzle
3:15 AM - - N/A% 29.99 in 5.0 mi Calm Calm - 0.03 in Rain Rain
3:35 AM - - N/A% 29.98 in 4.0 mi Calm Calm - 0.05 in   Drizzle
3:55 AM - - N/A% 29.97 in 7.0 mi Calm Calm - 0.06 in Rain Light Rain
4:35 AM - - N/A% 29.97 in 4.0 mi North 3.5 mph - 0.01 in   Light Drizzle
4:55 AM - - N/A% 29.97 in 7.0 mi North 4.6 mph - 0.01 in   Light Drizzle
5:15 AM - - N/A% 29.99 in 4.0 mi NNW 3.5 mph - 0.04 in Rain Heavy Rain
5:35 AM - - N/A% 29.99 in 4.0 mi North 5.8 mph - 0.08 in Rain Rain
5:55 AM - - N/A% 30.00 in 4.0 mi North 5.8 mph - 0.14 in Rain Rain
6:15 AM - - N/A% 30.00 in 5.0 mi North 5.8 mph - 0.05 in Rain Light Rain
6:35 AM - - N/A% 30.00 in 7.0 mi North 6.9 mph - 0.06 in   Light Drizzle
6:55 AM - - N/A% 30.03 in 5.0 mi North 4.6 mph - 0.06 in   Drizzle
7:15 AM - - N/A% 30.02 in 5.0 mi NE 6.9 mph - 0.03 in   Drizzle
7:35 AM - - N/A% 30.02 in 7.0 mi NE 6.9 mph - 0.04 in   Drizzle
7:55 AM - - N/A% 30.03 in 7.0 mi NE 5.8 mph - 0.04 in   Overcast
8:15 AM - - N/A% 30.02 in 4.0 mi ENE 5.8 mph - 0.01 in   Light Drizzle
8:35 AM - - N/A% 30.04 in 5.0 mi NNE 4.6 mph - 0.02 in Rain Rain
8:55 AM - - N/A% 30.05 in 3.0 mi North 3.5 mph - 0.06 in Rain Heavy Rain
9:15 AM - - N/A% 30.06 in 4.0 mi North 4.6 mph - 0.03 in Rain Rain
9:35 AM - - N/A% 30.05 in 4.0 mi North 4.6 mph - 0.05 in   Drizzle
9:55 AM - - N/A% 30.05 in 5.0 mi North 5.8 mph - 0.05 in   Haze
10:15 AM - - N/A% 30.05 in 5.0 mi North 5.8 mph - 0.01 in Rain Rain
10:35 AM - - N/A% 30.05 in 4.0 mi NNE 5.8 mph - 0.01 in   Light Drizzle
10:55 AM - - N/A% 30.03 in 3.0 mi NNE 9.2 mph - 0.02 in   Drizzle
11:15 AM - - N/A% 30.04 in 7.0 mi North 10.4 mph - N/A   Overcast
11:35 AM - - N/A% 30.03 in 5.0 mi NE 9.2 mph - 0.01 in Rain Rain
11:55 AM - - N/A% 30.01 in 5.0 mi NE 8.1 mph - 0.02 in   Light Drizzle
12:15 PM - - N/A% 30.00 in 10.0 mi NE 8.1 mph 16.1 mph N/A   Overcast
12:35 PM - - N/A% 29.98 in 7.0 mi NE 9.2 mph - N/A   Overcast
1:15 PM - - N/A% 29.96 in 7.0 mi NE 10.4 mph - N/A   Overcast
1:35 PM - - N/A% 29.96 in 10.0 mi NE 9.2 mph - N/A   Overcast
1:55 PM - - N/A% 29.95 in 7.0 mi NNE 8.1 mph - N/A   Overcast
2:15 PM - - N/A% 29.95 in 5.0 mi NNE 9.2 mph - N/A   Haze
2:35 PM - - N/A% 29.95 in 3.0 mi NE 13.8 mph 17.3 mph N/A   Overcast
2:55 PM - - N/A% 29.94 in 2.5 mi ENE 10.4 mph 16.1 mph N/A Rain Light Rain
3:15 PM - - N/A% 29.93 in 3.0 mi ENE 15.0 mph 19.6 mph 0.01 in   Light Drizzle
3:35 PM - - N/A% 29.95 in 4.0 mi NE 16.1 mph 23.0 mph 0.01 in   Haze
3:55 PM - - N/A% 29.95 in 5.0 mi ENE 13.8 mph 21.9 mph 0.01 in   Haze
4:15 PM - - N/A% 29.95 in 3.0 mi ENE 13.8 mph 19.6 mph N/A   Overcast
4:35 PM - - N/A% 29.95 in 5.0 mi NE 15.0 mph 24.2 mph 0.01 in Rain Light Rain
4:55 PM - - N/A% 29.95 in 7.0 mi NE 13.8 mph 24.2 mph 0.03 in Rain Rain
5:55 PM - - N/A% 29.97 in 7.0 mi NE 15.0 mph 23.0 mph 0.06 in Rain Light Rain
6:35 PM - - N/A% 30.00 in 4.0 mi NNE 19.6 mph 31.1 mph 0.11 in Rain Light Rain
8:55 PM - - N/A% 30.02 in 3.0 mi North 12.7 mph - 0.19 in   Unknown
9:15 PM - - N/A% 30.00 in 3.0 mi North 10.4 mph 24.2 mph 0.03 in   Unknown
9:55 PM - - N/A% 30.03 in 3.0 mi NNE 11.5 mph - 0.04 in   Unknown
10:15 PM - - N/A% 30.05 in 2.5 mi North 6.9 mph - 0.01 in   Unknown
10:35 PM - - N/A% 30.05 in 3.0 mi North 5.8 mph - 0.01 in   Unknown
10:55 PM - - N/A% 30.04 in 3.0 mi North 9.2 mph - 0.01 in   Unknown